Regional Weather Roundup
Issued by NWS Goodland, KS

Home | Current Version | Previous Version | Graphics & Text | Print | Product List | Glossary On
Versions: 1 2 3 4 5 6 7 8 9 10 11 12 13 14 15 16 17 18 19 20 21 22 23 24 25 26 27 28 29 30 31 32 33 34 35 36 37 38 39 40 41 42 43 44 45 46 47 48 49 50
000
ASUS43 KGLD 081008
RWRGLD

GOODLAND FORECAST AREA HOURLY WEATHER ROUNDUP
NATIONAL WEATHER SERVICE GOODLAND KS
300 AM MST THU DEC 08 2016

...OFFICIAL OBSERVATIONS...

CITY           SKY/WX    TMP DP  RH WIND       PRES   REMARKS
GOODLAND KS    CLOUDY    -3 -10  72 SW13      30.52S WCI -22
HILL CITY KS   CLEAR      5  -2  72 NW9       30.61S
IMPERIAL NEB   CLEAR      0  -8  69 NW15      30.53S WCI -19
MCCOOK NEB     CLEAR     -1  -7  75 W9        30.58S
AKRON CO       CLOUDY    -5 -10  79 W10       30.44F WCI -23
BURLINGTON CO  CLOUDY    -2  -9  72 W12       30.49S WCI -20
LIMON CO       CLOUDY    -9 -12  87 N6        30.39F
$$

...UNOFFICIAL OBSERVATIONS...

CITY           SKY/WX    TMP DP  RH WIND       PRES   REMARKS
COLBY KS       CLEAR      0   3 100 W9        30.56S
LENORA KS        N/A      2  32 100 MISG        N/A
NORTON KS      CLEAR      1  -8  66 W10       30.57  WCI -14
SHARON SPRINGS   N/A      1  -4  78 NW12        N/A  WCI -16
TRENTON NEB      N/A      1  32 100 NW10        N/A  WCI -15
KIT CARSON CO    N/A      2  -3  77 MISG        N/A
YUMA CO        FAIR      -8 -13  77 W10       30.48S WCI -26
$$



USA.gov is the U.S. government's official web portal to all federal, state and local government web resources and services.